Time,TemperatureF,DewpointF,PressureIn,WindDirection,WindDirectionDegrees,WindSpeedMPH,WindSpeedGustMPH,Humidity,HourlyPrecipIn,Conditions,Clouds,dailyrainin,SoftwareType,DateUTC
2013-05-21 00:01:00,64.9,63.1,29.95,SSE,154,0.0,0.0,94,0.00,,CLR,0.00,VWS V14.01,2013-05-21 04:01:00,
2013-05-21 00:06:00,64.8,63.0,29.95,SSE,155,0.0,0.0,94,0.00,,CLR,0.00,VWS V14.01,2013-05-21 04:06:00,
2013-05-21 00:11:00,64.6,62.8,29.95,SSE,155,0.0,0.0,94,0.00,,CLR,0.00,VWS V14.01,2013-05-21 04:11:00,
2013-05-21 00:16:00,64.4,62.9,29.95,SSE,154,0.0,0.0,95,0.00,,CLR,0.00,VWS V14.01,2013-05-21 04:16:00,
2013-05-21 00:21:00,64.3,62.5,29.95,SSE,155,2.0,2.0,94,0.00,,CLR,0.00,VWS V14.01,2013-05-21 04:21:00,
2013-05-21 00:26:00,64.1,62.6,29.95,SSE,155,0.0,2.0,95,0.00,,CLR,0.00,VWS V14.01,2013-05-21 04:26:00,
2013-05-21 00:31:00,64.0,62.5,29.95,SSE,153,0.0,0.0,95,0.00,,CLR,0.00,VWS V14.01,2013-05-21 04:31:00,
2013-05-21 00:36:00,63.7,62.2,29.95,SSE,154,0.0,0.0,95,0.00,,CLR,0.00,VWS V14.01,2013-05-21 04:36:00,
2013-05-21 00:41:00,63.6,62.2,29.95,SSE,153,0.0,0.0,95,0.00,,CLR,0.00,VWS V14.01,2013-05-21 04:41:00,
2013-05-21 00:46:00,63.4,62.0,29.95,SSE,153,0.0,0.0,95,0.00,,CLR,0.00,VWS V14.01,2013-05-21 04:46:00,
2013-05-21 00:51:00,63.3,62.1,29.94,SSE,153,0.0,0.0,96,0.00,,CLR,0.00,VWS V14.01,2013-05-21 04:51:00,
2013-05-21 00:56:00,63.2,62.0,29.95,SSE,154,0.0,0.0,96,0.00,,CLR,0.00,VWS V14.01,2013-05-21 04:56:00,
2013-05-21 01:01:00,63.1,61.9,29.95,SSE,153,0.0,0.0,96,0.00,,,0.00,VWS V14.01,2013-05-21 05:01:00,
2013-05-21 01:06:00,63.0,61.8,29.95,SSE,154,0.0,0.0,96,0.00,,,0.00,VWS V14.01,2013-05-21 05:06:00,
2013-05-21 01:11:00,62.8,61.7,29.95,SSE,154,0.0,0.0,96,0.00,,,0.00,VWS V14.01,2013-05-21 05:11:00,
2013-05-21 01:16:00,62.7,61.5,29.95,SSE,154,0.0,0.0,96,0.00,,,0.00,VWS V14.01,2013-05-21 05:16:00,
2013-05-21 01:21:00,62.5,61.3,29.95,SSE,153,0.0,0.0,96,0.00,,,0.00,VWS V14.01,2013-05-21 05:21:00,
2013-05-21 01:26:00,62.4,61.2,29.95,SSE,151,0.0,0.0,96,0.00,,,0.00,VWS V14.01,2013-05-21 05:26:00,
2013-05-21 01:31:00,62.2,61.0,29.95,SSE,150,0.0,0.0,96,0.00,,,0.00,VWS V14.01,2013-05-21 05:31:00,
2013-05-21 01:36:00,62.1,61.0,29.95,SSE,153,0.0,0.0,96,0.00,,,0.00,VWS V14.01,2013-05-21 05:36:00,
2013-05-21 01:41:00,62.1,61.0,29.94,SSE,153,0.0,0.0,96,0.00,,,0.00,VWS V14.01,2013-05-21 05:41:00,
2013-05-21 01:46:00,62.0,61.1,29.94,SSE,157,0.0,0.0,97,0.00,,,0.00,VWS V14.01,2013-05-21 05:46:00,
2013-05-21 01:51:00,62.0,61.1,29.94,SSE,159,0.0,0.0,97,0.00,,,0.00,VWS V14.01,2013-05-21 05:51:00,
2013-05-21 01:56:00,61.9,61.3,29.94,SSE,152,0.0,0.0,98,0.00,,,0.00,VWS V14.01,2013-05-21 05:56:00,
2013-05-21 02:01:00,61.8,60.9,29.94,SSE,156,0.0,0.0,97,0.00,,,0.00,VWS V14.01,2013-05-21 06:01:00,
2013-05-21 02:06:00,61.8,60.9,29.94,SSE,156,0.0,0.0,97,0.00,,,0.00,VWS V14.01,2013-05-21 06:06:00,
2013-05-21 02:11:00,61.7,61.1,29.94,SSE,155,0.0,0.0,98,0.00,,,0.00,VWS V14.01,2013-05-21 06:11:00,
2013-05-21 02:16:00,61.6,61.0,29.93,SSE,155,0.0,0.0,98,0.00,,,0.00,VWS V14.01,2013-05-21 06:16:00,
2013-05-21 02:21:00,61.6,61.0,29.93,SSE,155,0.0,0.0,98,0.00,,,0.00,VWS V14.01,2013-05-21 06:21:00,
2013-05-21 02:26:00,61.5,60.9,29.93,SSE,155,0.0,0.0,98,0.00,,,0.00,VWS V14.01,2013-05-21 06:26:00,
2013-05-21 02:31:00,61.5,60.9,29.92,SSE,157,0.0,0.0,98,0.00,,,0.00,VWS V14.01,2013-05-21 06:31:00,
2013-05-21 02:36:00,61.4,60.8,29.92,SSE,159,0.0,0.0,98,0.00,,,0.00,VWS V14.01,2013-05-21 06:36:00,
2013-05-21 02:41:00,61.2,60.6,29.92,SSE,158,0.0,0.0,98,0.00,,,0.00,VWS V14.01,2013-05-21 06:41:00,
2013-05-21 02:46:00,61.1,60.5,29.92,SSE,158,0.0,0.0,98,0.00,,,0.00,VWS V14.01,2013-05-21 06:46:00,
2013-05-21 02:51:00,61.0,60.4,29.92,SSE,159,0.0,0.0,98,0.00,,,0.00,VWS V14.01,2013-05-21 06:51:00,
2013-05-21 02:56:00,60.9,60.3,29.92,SSE,160,0.0,0.0,98,0.00,,,0.00,VWS V14.01,2013-05-21 06:56:00,
2013-05-21 03:01:00,60.8,60.2,29.92,SSE,158,0.0,0.0,98,0.00,,,0.00,VWS V14.01,2013-05-21 07:01:00,
2013-05-21 03:06:00,60.8,60.2,29.92,SSE,158,0.0,0.0,98,0.00,,,0.00,VWS V14.01,2013-05-21 07:06:00,
2013-05-21 03:11:00,60.8,60.2,29.91,SSE,158,0.0,0.0,98,0.00,,,0.00,VWS V14.01,2013-05-21 07:11:00,
2013-05-21 03:16:00,60.8,60.2,29.91,SSE,158,0.0,0.0,98,0.00,,,0.00,VWS V14.01,2013-05-21 07:16:00,
2013-05-21 03:21:00,60.8,60.2,29.90,SSE,158,0.0,0.0,98,0.00,,,0.00,VWS V14.01,2013-05-21 07:21:00,
2013-05-21 03:26:00,60.7,60.4,29.91,SSE,156,0.0,0.0,99,0.00,,,0.00,VWS V14.01,2013-05-21 07:26:00,
2013-05-21 03:31:00,60.8,60.5,29.91,SSE,157,0.0,0.0,99,0.00,,,0.00,VWS V14.01,2013-05-21 07:31:00,
2013-05-21 03:36:00,60.7,60.1,29.91,SSE,161,0.0,1.0,98,0.00,,,0.00,VWS V14.01,2013-05-21 07:36:00,
2013-05-21 03:41:00,60.6,60.3,29.91,SSE,162,1.0,2.0,99,0.00,,,0.00,VWS V14.01,2013-05-21 07:41:00,
2013-05-21 03:46:00,60.7,60.4,29.91,SE,140,0.0,2.0,99,0.00,,,0.00,VWS V14.01,2013-05-21 07:46:00,
2013-05-21 03:51:00,60.7,60.4,29.91,SSE,155,0.0,2.0,99,0.00,,,0.00,VWS V14.01,2013-05-21 07:51:00,
2013-05-21 03:56:00,60.6,60.3,29.91,SSE,157,2.0,2.0,99,0.00,,,0.00,VWS V14.01,2013-05-21 07:56:00,
2013-05-21 04:01:00,60.6,60.3,29.91,SSE,156,0.0,0.0,99,0.00,,,0.00,VWS V14.01,2013-05-21 08:01:00,
2013-05-21 04:06:00,60.6,60.3,29.91,SSE,152,0.0,2.0,99,0.00,,,0.00,VWS V14.01,2013-05-21 08:06:00,
2013-05-21 04:11:00,60.4,60.1,29.91,SSE,156,0.0,2.0,99,0.00,,,0.00,VWS V14.01,2013-05-21 08:11:00,
2013-05-21 04:16:00,60.3,60.0,29.91,SSE,158,0.0,2.0,99,0.00,,,0.00,VWS V14.01,2013-05-21 08:16:00,
2013-05-21 04:21:00,60.2,59.9,29.91,SSE,160,0.0,2.0,99,0.00,,,0.00,VWS V14.01,2013-05-21 08:21:00,
2013-05-21 04:26:00,60.1,59.8,29.91,SSE,160,0.0,2.0,99,0.00,,,0.00,VWS V14.01,2013-05-21 08:26:00,
2013-05-21 04:31:00,60.0,59.7,29.91,SSE,160,0.0,0.0,99,0.00,,,0.00,VWS V14.01,2013-05-21 08:31:00,
2013-05-21 04:36:00,60.0,59.7,29.91,SSE,160,0.0,0.0,99,0.00,,,0.00,VWS V14.01,2013-05-21 08:36:00,
2013-05-21 04:41:00,60.0,59.7,29.91,SSE,161,0.0,0.0,99,0.00,,,0.00,VWS V14.01,2013-05-21 08:41:00,
2013-05-21 04:46:00,59.9,59.9,29.92,SSE,160,0.0,0.0,100,0.00,,,0.00,VWS V14.01,2013-05-21 08:46:00,
2013-05-21 04:51:00,59.8,59.8,29.92,SSE,160,0.0,0.0,100,0.00,,,0.00,VWS V14.01,2013-05-21 08:51:00,
2013-05-21 04:56:00,59.8,59.5,29.92,SSE,159,0.0,2.0,99,0.00,,,0.00,VWS V14.01,2013-05-21 08:56:00,
2013-05-21 05:01:00,59.6,59.3,29.92,SSE,158,0.0,0.0,99,0.00,,,0.00,VWS V14.01,2013-05-21 09:01:00,
2013-05-21 05:06:00,59.5,59.2,29.92,SSE,156,0.0,0.0,99,0.00,,,0.00,VWS V14.01,2013-05-21 09:06:00,
2013-05-21 05:11:00,59.4,59.1,29.93,SSE,158,0.0,0.0,99,0.00,,,0.00,VWS V14.01,2013-05-21 09:11:00,
2013-05-21 05:16:00,59.3,59.0,29.93,SSE,158,0.0,0.0,99,0.00,,,0.00,VWS V14.01,2013-05-21 09:16:00,
2013-05-21 05:21:00,59.2,58.9,29.93,SSE,159,0.0,0.0,99,0.00,,,0.00,VWS V14.01,2013-05-21 09:21:00,
2013-05-21 05:26:00,59.2,58.9,29.93,SSE,158,0.0,0.0,99,0.00,,,0.00,VWS V14.01,2013-05-21 09:26:00,
2013-05-21 05:31:00,59.1,59.1,29.93,SSE,158,0.0,0.0,100,0.00,,,0.00,VWS V14.01,2013-05-21 09:31:00,
2013-05-21 05:36:00,59.2,59.2,29.94,SSE,158,2.0,2.0,100,0.00,,,0.00,VWS V14.01,2013-05-21 09:36:00,
2013-05-21 05:41:00,59.3,59.3,29.95,SSE,157,0.0,2.0,100,0.00,,,0.00,VWS V14.01,2013-05-21 09:41:00,
2013-05-21 05:46:00,59.2,59.2,29.94,SSE,157,0.0,2.0,100,0.00,,,0.00,VWS V14.01,2013-05-21 09:46:00,
2013-05-21 05:51:00,59.2,59.2,29.94,SSE,159,0.0,2.0,100,0.00,,,0.00,VWS V14.01,2013-05-21 09:51:00,
2013-05-21 05:56:00,59.2,59.2,29.94,SSE,158,0.0,2.0,100,0.00,,,0.00,VWS V14.01,2013-05-21 09:56:00,
2013-05-21 06:01:00,59.4,59.4,29.94,SSE,159,0.0,1.0,100,0.00,,,0.00,VWS V14.01,2013-05-21 10:01:00,
2013-05-21 06:06:00,59.5,59.5,29.94,SSE,156,0.0,1.0,100,0.00,,,0.00,VWS V14.01,2013-05-21 10:06:00,
2013-05-21 06:11:00,59.7,59.7,29.95,SSE,163,0.0,3.0,100,0.00,,,0.00,VWS V14.01,2013-05-21 10:11:00,
2013-05-21 06:16:00,59.8,59.8,29.94,SSE,162,0.0,3.0,100,0.00,,,0.00,VWS V14.01,2013-05-21 10:16:00,
2013-05-21 06:21:00,59.9,59.9,29.95,SSE,158,0.0,3.0,100,0.00,,,0.00,VWS V14.01,2013-05-21 10:21:00,
2013-05-21 06:26:00,60.0,60.0,29.95,SSE,163,0.0,3.0,100,0.00,,,0.00,VWS V14.01,2013-05-21 10:26:00,
2013-05-21 06:31:00,60.2,60.2,29.96,SSE,163,0.0,0.0,100,0.00,,,0.00,VWS V14.01,2013-05-21 10:31:00,
2013-05-21 06:36:00,60.3,60.3,29.96,SSE,162,0.0,1.0,100,0.00,,,0.00,VWS V14.01,2013-05-21 10:36:00,
2013-05-21 06:41:00,60.6,60.6,29.96,SSE,161,0.0,1.0,100,0.00,,,0.00,VWS V14.01,2013-05-21 10:41:00,
2013-05-21 06:46:00,60.8,60.8,29.95,SSE,158,0.0,1.0,100,0.00,,,0.00,VWS V14.01,2013-05-21 10:46:00,
2013-05-21 06:51:00,61.0,61.0,29.95,SSE,161,0.0,1.0,100,0.00,,,0.00,VWS V14.01,2013-05-21 10:51:00,
2013-05-21 06:56:00,61.3,61.3,29.95,SSE,162,0.0,1.0,100,0.00,,,0.00,VWS V14.01,2013-05-21 10:56:00,
2013-05-21 07:01:00,61.6,61.6,29.95,SSE,160,0.0,0.0,100,0.00,,,0.00,VWS V14.01,2013-05-21 11:01:00,
2013-05-21 07:06:00,61.9,61.9,29.95,SSE,161,1.0,2.0,100,0.00,,,0.00,VWS V14.01,2013-05-21 11:06:00,
2013-05-21 07:11:00,62.1,62.1,29.94,SSE,160,0.0,2.0,100,0.00,,,0.00,VWS V14.01,2013-05-21 11:11:00,
2013-05-21 07:16:00,62.3,62.3,29.94,SSE,155,0.0,2.0,100,0.00,,,0.00,VWS V14.01,2013-05-21 11:16:00,
2013-05-21 07:21:00,62.7,62.7,29.94,SSE,168,0.0,2.0,100,0.00,,,0.00,VWS V14.01,2013-05-21 11:21:00,
2013-05-21 07:26:00,63.0,63.0,29.95,SSE,160,0.0,2.0,100,0.00,,,0.00,VWS V14.01,2013-05-21 11:26:00,
2013-05-21 07:31:00,63.4,63.4,29.94,SSE,158,0.0,0.0,100,0.00,,,0.00,VWS V14.01,2013-05-21 11:31:00,
2013-05-21 07:36:00,63.8,63.8,29.94,SSE,159,0.0,0.0,100,0.00,,,0.00,VWS V14.01,2013-05-21 11:36:00,
2013-05-21 07:41:00,64.4,64.4,29.94,SSE,158,0.0,0.0,100,0.00,,,0.00,VWS V14.01,2013-05-21 11:41:00,
2013-05-21 07:46:00,65.2,65.2,29.94,SSE,158,0.0,1.0,100,0.00,,,0.00,VWS V14.01,2013-05-21 11:46:00,
2013-05-21 07:51:00,65.9,65.9,29.94,SSE,165,0.0,1.0,100,0.00,,,0.00,VWS V14.01,2013-05-21 11:51:00,
2013-05-21 07:56:00,66.6,66.6,29.94,South,170,0.0,3.0,100,0.00,,,0.00,VWS V14.01,2013-05-21 11:56:00,
2013-05-21 08:01:00,67.4,67.4,29.94,South,170,0.0,1.0,100,0.00,,,0.00,VWS V14.01,2013-05-21 12:01:00,
2013-05-21 08:06:00,68.2,68.2,29.94,South,170,0.0,3.0,100,0.00,,,0.00,VWS V14.01,2013-05-21 12:06:00,
2013-05-21 08:11:00,69.1,69.1,29.94,South,171,0.0,3.0,100,0.00,,,0.00,VWS V14.01,2013-05-21 12:11:00,
2013-05-21 08:16:00,69.9,69.9,29.94,South,171,0.0,3.0,100,0.00,,,0.00,VWS V14.01,2013-05-21 12:16:00,
2013-05-21 08:21:00,70.7,70.7,29.94,South,172,0.0,3.0,100,0.00,,,0.00,VWS V14.01,2013-05-21 12:21:00,
2013-05-21 08:26:00,71.6,71.0,29.95,South,172,0.0,3.0,98,0.00,,,0.00,VWS V14.01,2013-05-21 12:26:00,
2013-05-21 08:31:00,72.5,71.3,29.94,South,172,0.0,1.0,96,0.00,,,0.00,VWS V14.01,2013-05-21 12:31:00,
2013-05-21 08:36:00,73.3,71.2,29.94,South,172,0.0,1.0,93,0.00,,,0.00,VWS V14.01,2013-05-21 12:36:00,
2013-05-21 08:41:00,74.0,71.2,29.94,South,172,0.0,1.0,91,0.00,,,0.00,VWS V14.01,2013-05-21 12:41:00,
2013-05-21 08:46:00,74.8,71.3,29.95,South,172,0.0,1.0,89,0.00,,,0.00,VWS V14.01,2013-05-21 12:46:00,
2013-05-21 08:51:00,75.4,70.9,29.95,South,172,0.0,1.0,86,0.00,,,0.00,VWS V14.01,2013-05-21 12:51:00,
2013-05-21 08:56:00,76.3,71.5,29.95,South,172,0.0,1.0,85,0.00,,,0.00,VWS V14.01,2013-05-21 12:56:00,
2013-05-21 09:01:00,77.1,71.5,29.95,South,172,2.0,4.0,83,0.00,,CLR,0.00,VWS V14.01,2013-05-21 13:01:00,
2013-05-21 09:06:00,77.8,71.1,29.95,South,172,0.0,4.0,80,0.00,,CLR,0.00,VWS V14.01,2013-05-21 13:06:00,
2013-05-21 09:11:00,78.4,71.3,29.95,South,172,0.0,4.0,79,0.00,,CLR,0.00,VWS V14.01,2013-05-21 13:11:00,
2013-05-21 09:16:00,78.9,71.5,29.95,South,172,1.0,4.0,78,0.00,,CLR,0.00,VWS V14.01,2013-05-21 13:16:00,
2013-05-21 09:21:00,79.4,71.9,29.94,South,172,0.0,4.0,78,0.00,,CLR,0.00,VWS V14.01,2013-05-21 13:21:00,
2013-05-21 09:26:00,79.8,71.9,29.94,South,172,3.0,5.0,77,0.00,,CLR,0.00,VWS V14.01,2013-05-21 13:26:00,
2013-05-21 09:31:00,80.1,71.9,29.94,South,172,3.0,4.0,76,0.00,,CLR,0.00,VWS V14.01,2013-05-21 13:31:00,
2013-05-21 09:36:00,80.4,72.2,29.94,South,172,2.0,6.0,76,0.00,,CLR,0.00,VWS V14.01,2013-05-21 13:36:00,
2013-05-21 09:41:00,80.3,71.7,29.93,WSW,250,2.0,7.0,75,0.00,,CLR,0.00,VWS V14.01,2013-05-21 13:41:00,
2013-05-21 09:46:00,79.8,71.9,29.93,SSW,204,3.0,7.0,77,0.00,,CLR,0.00,VWS V14.01,2013-05-21 13:46:00,
2013-05-21 09:51:00,79.8,71.6,29.93,WSW,237,3.0,7.0,76,0.00,,CLR,0.00,VWS V14.01,2013-05-21 13:51:00,
2013-05-21 09:56:00,79.4,71.6,29.93,SW,227,2.0,7.0,77,0.00,,CLR,0.00,VWS V14.01,2013-05-21 13:56:00,
2013-05-21 10:01:00,79.7,72.2,29.93,WSW,254,3.0,6.0,78,0.00,,CLR,0.00,VWS V14.01,2013-05-21 14:01:00,
2013-05-21 10:06:00,80.2,71.9,29.93,SW,233,4.0,9.0,76,0.00,,CLR,0.00,VWS V14.01,2013-05-21 14:06:00,
2013-05-21 10:11:00,80.1,71.9,29.93,SW,236,2.0,9.0,76,0.00,,CLR,0.00,VWS V14.01,2013-05-21 14:11:00,
2013-05-21 10:16:00,80.0,72.2,29.92,SSW,205,3.0,9.0,77,0.00,,CLR,0.00,VWS V14.01,2013-05-21 14:16:00,
2013-05-21 10:21:00,80.6,72.3,29.93,SSW,195,5.0,9.0,76,0.00,,CLR,0.00,VWS V14.01,2013-05-21 14:21:00,
2013-05-21 10:26:00,81.3,72.6,29.92,SSW,212,4.0,9.0,75,0.00,,CLR,0.00,VWS V14.01,2013-05-21 14:26:00,
2013-05-21 10:31:00,81.8,73.1,29.92,South,169,0.0,5.0,75,0.00,,CLR,0.00,VWS V14.01,2013-05-21 14:31:00,
2013-05-21 10:36:00,82.5,73.4,29.92,South,191,6.0,6.0,74,0.00,,CLR,0.00,VWS V14.01,2013-05-21 14:36:00,
2013-05-21 10:41:00,83.1,73.1,29.92,SSE,168,4.0,6.0,72,0.00,,CLR,0.00,VWS V14.01,2013-05-21 14:41:00,
2013-05-21 10:46:00,83.5,73.5,29.92,WSW,246,4.0,8.0,72,0.00,,CLR,0.00,VWS V14.01,2013-05-21 14:46:00,
2013-05-21 10:51:00,83.6,73.6,29.92,South,189,3.0,8.0,72,0.00,,CLR,0.00,VWS V14.01,2013-05-21 14:51:00,
2013-05-21 10:56:00,84.0,74.0,29.92,South,183,3.0,8.0,72,0.00,,CLR,0.00,VWS V14.01,2013-05-21 14:56:00,
2013-05-21 11:01:00,84.5,74.1,29.92,SW,219,2.0,6.0,71,0.00,,CLR,0.00,VWS V14.01,2013-05-21 15:01:00,
2013-05-21 11:06:00,85.1,74.6,29.92,SSW,205,1.0,7.0,71,0.00,,CLR,0.00,VWS V14.01,2013-05-21 15:06:00,
2013-05-21 11:11:00,85.2,73.9,29.92,WSW,252,4.0,7.0,69,0.00,,CLR,0.00,VWS V14.01,2013-05-21 15:11:00,
2013-05-21 11:16:00,85.2,74.3,29.91,South,174,2.0,7.0,70,0.00,,CLR,0.00,VWS V14.01,2013-05-21 15:16:00,
2013-05-21 11:21:00,85.5,74.6,29.91,NW,317,3.0,7.0,70,0.00,,CLR,0.00,VWS V14.01,2013-05-21 15:21:00,
2013-05-21 11:26:00,85.9,74.1,29.91,West,259,2.0,8.0,68,0.00,,CLR,0.00,VWS V14.01,2013-05-21 15:26:00,
2013-05-21 11:31:00,86.1,75.2,29.91,SSW,212,4.0,5.0,70,0.00,,CLR,0.00,VWS V14.01,2013-05-21 15:31:00,
2013-05-21 11:36:00,86.7,74.9,29.91,SSW,203,5.0,7.0,68,0.00,,CLR,0.00,VWS V14.01,2013-05-21 15:36:00,
2013-05-21 11:41:00,87.3,75.0,29.91,SSW,204,3.0,7.0,67,0.00,,CLR,0.00,VWS V14.01,2013-05-21 15:41:00,
2013-05-21 11:46:00,87.5,75.6,29.91,SSW,204,3.0,7.0,68,0.00,,CLR,0.00,VWS V14.01,2013-05-21 15:46:00,
2013-05-21 11:51:00,87.6,75.3,29.91,SSW,199,6.0,8.0,67,0.00,,CLR,0.00,VWS V14.01,2013-05-21 15:51:00,
2013-05-21 11:56:00,87.5,75.2,29.91,SW,219,4.0,9.0,67,0.00,,CLR,0.00,VWS V14.01,2013-05-21 15:56:00,
2013-05-21 12:01:00,87.6,75.3,29.90,SSW,207,3.0,4.0,67,0.00,,CLR,0.00,VWS V14.01,2013-05-21 16:01:00,
2013-05-21 12:06:00,88.3,76.0,29.90,South,174,5.0,7.0,67,0.00,,CLR,0.00,VWS V14.01,2013-05-21 16:06:00,
2013-05-21 12:11:00,89.0,76.2,29.90,South,186,3.0,7.0,66,0.00,,CLR,0.00,VWS V14.01,2013-05-21 16:11:00,
2013-05-21 12:16:00,89.6,75.8,29.90,SSW,194,5.0,9.0,64,0.00,,CLR,0.00,VWS V14.01,2013-05-21 16:16:00,
2013-05-21 12:21:00,89.8,76.0,29.89,SSW,200,5.0,9.0,64,0.00,,CLR,0.00,VWS V14.01,2013-05-21 16:21:00,
2013-05-21 12:26:00,89.9,75.6,29.90,SSW,205,5.0,9.0,63,0.00,,CLR,0.00,VWS V14.01,2013-05-21 16:26:00,
2013-05-21 12:31:00,90.1,75.3,29.90,SSW,204,8.0,10.0,62,0.00,,CLR,0.00,VWS V14.01,2013-05-21 16:31:00,
2013-05-21 12:36:00,89.8,75.1,29.90,SSW,203,3.0,10.0,62,0.00,,CLR,0.00,VWS V14.01,2013-05-21 16:36:00,
2013-05-21 12:41:00,89.8,75.5,29.90,SSW,211,0.0,10.0,63,0.00,,CLR,0.00,VWS V14.01,2013-05-21 16:41:00,
2013-05-21 12:46:00,90.5,75.7,29.90,South,186,6.0,10.0,62,0.00,,CLR,0.00,VWS V14.01,2013-05-21 16:46:00,
2013-05-21 12:51:00,90.9,76.1,29.89,SW,223,4.0,10.0,62,0.00,,CLR,0.00,VWS V14.01,2013-05-21 16:51:00,
2013-05-21 12:56:00,91.3,76.0,29.89,SW,215,4.0,10.0,61,0.00,,CLR,0.00,VWS V14.01,2013-05-21 16:56:00,
2013-05-21 13:02:00,91.0,75.7,29.89,SW,219,5.0,8.0,61,0.00,,CLR,0.00,VWS V14.01,2013-05-21 17:02:00,
2013-05-21 13:07:00,90.7,75.4,29.89,SSW,203,6.0,8.0,61,0.00,,CLR,0.00,VWS V14.01,2013-05-21 17:07:00,
2013-05-21 13:12:00,90.7,75.4,29.89,WSW,239,4.0,9.0,61,0.00,,CLR,0.00,VWS V14.01,2013-05-21 17:12:00,
2013-05-21 13:17:00,91.0,75.2,29.88,SSW,205,4.0,9.0,60,0.00,,CLR,0.00,VWS V14.01,2013-05-21 17:17:00,
2013-05-21 13:22:00,91.1,74.3,29.88,SW,234,5.0,9.0,58,0.00,,CLR,0.00,VWS V14.01,2013-05-21 17:22:00,
2013-05-21 13:27:00,91.1,74.8,29.88,SSW,213,5.0,9.0,59,0.00,,CLR,0.00,VWS V14.01,2013-05-21 17:27:00,
2013-05-21 13:32:00,91.4,74.6,29.88,SSW,192,6.0,7.0,58,0.00,,CLR,0.00,VWS V14.01,2013-05-21 17:32:00,
2013-05-21 13:37:00,91.7,73.8,29.88,WSW,242,6.0,8.0,56,0.00,,CLR,0.00,VWS V14.01,2013-05-21 17:37:00,
2013-05-21 13:42:00,91.5,74.7,29.87,WSW,239,4.0,8.0,58,0.00,,CLR,0.00,VWS V14.01,2013-05-21 17:42:00,
2013-05-21 13:47:00,91.7,73.8,29.87,SW,221,4.0,8.0,56,0.00,,CLR,0.00,VWS V14.01,2013-05-21 17:47:00,
2013-05-21 13:52:00,91.4,73.0,29.87,SW,231,0.0,9.0,55,0.00,,CLR,0.00,VWS V14.01,2013-05-21 17:52:00,
2013-05-21 13:57:00,91.4,73.5,29.87,SW,224,2.0,9.0,56,0.00,,CLR,0.00,VWS V14.01,2013-05-21 17:57:00,
2013-05-21 14:02:00,91.7,73.8,29.87,SW,225,7.0,7.0,56,0.00,,BKN065,0.00,VWS V14.01,2013-05-21 18:02:00,
2013-05-21 14:07:00,92.0,73.0,29.87,SW,220,2.0,9.0,54,0.00,,BKN065,0.00,VWS V14.01,2013-05-21 18:07:00,
2013-05-21 14:12:00,92.2,73.2,29.87,SW,228,4.0,9.0,54,0.00,,BKN065,0.00,VWS V14.01,2013-05-21 18:12:00,
2013-05-21 14:17:00,91.9,72.9,29.86,SW,223,6.0,10.0,54,0.00,,BKN065,0.00,VWS V14.01,2013-05-21 18:17:00,
2013-05-21 14:22:00,91.8,72.2,29.86,West,261,0.0,10.0,53,0.00,,BKN065,0.00,VWS V14.01,2013-05-21 18:22:00,
2013-05-21 14:27:00,92.0,73.0,29.85,SW,228,4.0,10.0,54,0.00,,BKN065,0.00,VWS V14.01,2013-05-21 18:27:00,
2013-05-21 14:32:00,92.1,72.0,29.85,SW,224,3.0,7.0,52,0.00,,BKN065,0.00,VWS V14.01,2013-05-21 18:32:00,
2013-05-21 14:37:00,91.7,71.6,29.85,WSW,244,0.0,8.0,52,0.00,,BKN065,0.00,VWS V14.01,2013-05-21 18:37:00,
2013-05-21 14:42:00,91.8,72.8,29.85,WNW,293,0.0,8.0,54,0.00,,BKN065,0.00,VWS V14.01,2013-05-21 18:42:00,
2013-05-21 14:47:00,92.4,71.7,29.85,SSW,203,0.0,8.0,51,0.00,,BKN065,0.00,VWS V14.01,2013-05-21 18:47:00,
2013-05-21 14:52:00,92.7,72.5,29.85,WSW,247,5.0,9.0,52,0.00,,BKN065,0.00,VWS V14.01,2013-05-21 18:52:00,
2013-05-21 14:57:00,92.9,72.7,29.85,SSW,207,3.0,9.0,52,0.00,,BKN065,0.00,VWS V14.01,2013-05-21 18:57:00,
2013-05-21 15:02:00,93.3,73.1,29.85,SSW,204,6.0,10.0,52,0.00,,BKN060,0.00,VWS V14.01,2013-05-21 19:02:00,
2013-05-21 15:07:00,93.0,72.8,29.84,SSW,206,5.0,10.0,52,0.00,,BKN060,0.00,VWS V14.01,2013-05-21 19:07:00,
2013-05-21 15:12:00,93.0,73.3,29.84,SSW,206,6.0,10.0,53,0.00,,BKN060,0.00,VWS V14.01,2013-05-21 19:12:00,
2013-05-21 15:17:00,92.8,73.2,29.84,South,171,5.0,10.0,53,0.00,,BKN060,0.00,VWS V14.01,2013-05-21 19:17:00,
2013-05-21 15:22:00,92.8,72.6,29.83,SSW,202,1.0,10.0,52,0.00,,BKN060,0.00,VWS V14.01,2013-05-21 19:22:00,
2013-05-21 15:27:00,92.8,72.0,29.83,SW,221,5.0,11.0,51,0.00,,BKN060,0.00,VWS V14.01,2013-05-21 19:27:00,
2013-05-21 15:32:00,92.4,71.7,29.83,WSW,248,4.0,7.0,51,0.00,,BKN060,0.00,VWS V14.01,2013-05-21 19:32:00,
2013-05-21 15:37:00,92.0,71.9,29.82,WSW,252,5.0,7.0,52,0.00,,BKN060,0.00,VWS V14.01,2013-05-21 19:37:00,
2013-05-21 15:42:00,92.2,72.1,29.82,SSW,212,1.0,7.0,52,0.00,,BKN060,0.00,VWS V14.01,2013-05-21 19:42:00,
2013-05-21 15:47:00,92.9,72.7,29.82,WSW,251,4.0,11.0,52,0.00,,BKN060,0.00,VWS V14.01,2013-05-21 19:47:00,
2013-05-21 15:52:00,92.9,72.1,29.82,SSW,202,1.0,11.0,51,0.00,,BKN060,0.00,VWS V14.01,2013-05-21 19:52:00,
2013-05-21 15:57:00,92.8,70.8,29.82,WSW,241,8.0,11.0,49,0.00,,BKN060,0.00,VWS V14.01,2013-05-21 19:57:00,
2013-05-21 16:02:00,92.7,71.3,29.82,WSW,249,4.0,13.0,50,0.00,,FEW050,0.00,VWS V14.01,2013-05-21 20:02:00,
2013-05-21 16:07:00,92.6,71.3,29.82,SW,229,0.0,13.0,50,0.00,,FEW050,0.00,VWS V14.01,2013-05-21 20:07:00,
2013-05-21 16:12:00,92.6,71.3,29.82,WSW,246,5.0,14.0,50,0.00,,FEW050,0.00,VWS V14.01,2013-05-21 20:12:00,
2013-05-21 16:17:00,92.7,71.3,29.82,SSW,205,2.0,14.0,50,0.00,,FEW050,0.00,VWS V14.01,2013-05-21 20:17:00,
2013-05-21 16:22:00,93.1,71.7,29.82,SW,230,5.0,14.0,50,0.00,,FEW050,0.00,VWS V14.01,2013-05-21 20:22:00,
2013-05-21 16:27:00,93.4,71.4,29.81,WSW,245,5.0,14.0,49,0.00,,FEW050,0.00,VWS V14.01,2013-05-21 20:27:00,
2013-05-21 16:32:00,93.6,72.2,29.81,WSW,237,1.0,3.0,50,0.00,,FEW050,0.00,VWS V14.01,2013-05-21 20:32:00,
2013-05-21 16:37:00,93.6,71.6,29.81,West,261,5.0,13.0,49,0.00,,FEW050,0.00,VWS V14.01,2013-05-21 20:37:00,
2013-05-21 16:42:00,93.5,72.1,29.81,SW,231,3.0,13.0,50,0.00,,FEW050,0.00,VWS V14.01,2013-05-21 20:42:00,
2013-05-21 16:47:00,93.4,70.8,29.81,SW,235,5.0,13.0,48,0.00,,FEW050,0.00,VWS V14.01,2013-05-21 20:47:00,
2013-05-21 16:52:00,93.2,71.2,29.81,WSW,257,4.0,13.0,49,0.00,,FEW050,0.00,VWS V14.01,2013-05-21 20:52:00,
2013-05-21 16:57:00,93.4,71.4,29.80,West,269,6.0,13.0,49,0.00,,FEW050,0.00,VWS V14.01,2013-05-21 20:57:00,
2013-05-21 17:02:00,93.2,71.2,29.80,SW,226,5.0,8.0,49,0.00,,CLR,0.00,VWS V14.01,2013-05-21 21:02:00,
2013-05-21 17:07:00,92.9,71.5,29.80,South,181,3.0,8.0,50,0.00,,CLR,0.00,VWS V14.01,2013-05-21 21:07:00,
2013-05-21 17:12:00,92.4,71.7,29.80,SSW,199,2.0,8.0,51,0.00,,CLR,0.00,VWS V14.01,2013-05-21 21:12:00,
2013-05-21 17:17:00,91.6,70.9,29.80,West,262,0.0,11.0,51,0.00,,CLR,0.00,VWS V14.01,2013-05-21 21:17:00,
2013-05-21 17:22:00,91.1,70.5,29.81,WSW,251,6.0,11.0,51,0.00,,CLR,0.00,VWS V14.01,2013-05-21 21:22:00,
2013-05-21 17:27:00,90.3,70.3,29.81,SW,230,8.0,11.0,52,0.00,,CLR,0.00,VWS V14.01,2013-05-21 21:27:00,
2013-05-21 17:32:00,89.9,70.5,29.81,WSW,251,3.0,12.0,53,0.00,,CLR,0.00,VWS V14.01,2013-05-21 21:32:00,
2013-05-21 17:37:00,89.6,70.8,29.82,WSW,248,6.0,15.0,54,0.00,,CLR,0.00,VWS V14.01,2013-05-21 21:37:00,
2013-05-21 17:42:00,89.4,70.6,29.82,WSW,238,4.0,15.0,54,0.00,,CLR,0.00,VWS V14.01,2013-05-21 21:42:00,
2013-05-21 17:47:00,89.1,70.3,29.82,WSW,237,8.0,15.0,54,0.00,,CLR,0.00,VWS V14.01,2013-05-21 21:47:00,
2013-05-21 17:52:00,89.1,70.3,29.81,SW,235,4.0,15.0,54,0.00,,CLR,0.00,VWS V14.01,2013-05-21 21:52:00,
2013-05-21 17:57:00,89.1,70.3,29.81,SSW,212,1.0,15.0,54,0.00,,CLR,0.00,VWS V14.01,2013-05-21 21:57:00,
2013-05-21 18:02:00,89.5,70.7,29.81,SW,217,4.0,11.0,54,0.00,,CLR,0.00,VWS V14.01,2013-05-21 22:02:00,
2013-05-21 18:07:00,89.6,70.8,29.81,SW,219,1.0,11.0,54,0.00,,CLR,0.00,VWS V14.01,2013-05-21 22:07:00,
2013-05-21 18:12:00,89.9,71.0,29.81,SW,218,4.0,11.0,54,0.00,,CLR,0.00,VWS V14.01,2013-05-21 22:12:00,
2013-05-21 18:17:00,90.2,71.3,29.80,SW,219,4.0,11.0,54,0.00,,CLR,0.00,VWS V14.01,2013-05-21 22:17:00,
2013-05-21 18:22:00,90.3,71.4,29.80,South,184,3.0,11.0,54,0.00,,CLR,0.00,VWS V14.01,2013-05-21 22:22:00,
2013-05-21 18:27:00,90.2,71.3,29.80,SW,218,4.0,11.0,54,0.00,,CLR,0.00,VWS V14.01,2013-05-21 22:27:00,
2013-05-21 18:32:00,90.3,71.4,29.80,SSW,211,6.0,11.0,54,0.00,,CLR,0.00,VWS V14.01,2013-05-21 22:32:00,
2013-05-21 18:37:00,90.3,71.4,29.80,SSW,194,3.0,11.0,54,0.00,,CLR,0.00,VWS V14.01,2013-05-21 22:37:00,
2013-05-21 18:42:00,90.5,71.6,29.79,SW,220,3.0,11.0,54,0.00,,CLR,0.00,VWS V14.01,2013-05-21 22:42:00,
2013-05-21 18:47:00,90.6,71.7,29.80,SW,215,6.0,11.0,54,0.00,,CLR,0.00,VWS V14.01,2013-05-21 22:47:00,
2013-05-21 18:52:00,90.2,71.9,29.80,SW,222,6.0,11.0,55,0.00,,CLR,0.00,VWS V14.01,2013-05-21 22:52:00,
2013-05-21 18:57:00,89.6,71.8,29.80,SW,227,4.0,11.0,56,0.00,,CLR,0.00,VWS V14.01,2013-05-21 22:57:00,
2013-05-21 19:02:00,89.0,71.8,29.80,SW,218,2.0,7.0,57,0.00,,CLR,0.00,VWS V14.01,2013-05-21 23:02:00,
2013-05-21 19:07:00,88.5,71.8,29.80,South,172,5.0,7.0,58,0.00,,CLR,0.00,VWS V14.01,2013-05-21 23:07:00,
2013-05-21 19:12:00,88.2,72.1,29.80,SW,229,5.0,10.0,59,0.00,,CLR,0.00,VWS V14.01,2013-05-21 23:12:00,
2013-05-21 19:17:00,87.8,71.7,29.80,SSE,166,4.0,10.0,59,0.00,,CLR,0.00,VWS V14.01,2013-05-21 23:17:00,
2013-05-21 19:22:00,87.3,72.2,29.80,South,190,2.0,10.0,61,0.00,,CLR,0.00,VWS V14.01,2013-05-21 23:22:00,
2013-05-21 19:27:00,86.8,71.8,29.79,South,182,8.0,11.0,61,0.00,,CLR,0.00,VWS V14.01,2013-05-21 23:27:00,
2013-05-21 19:32:00,86.3,71.8,29.80,SW,217,4.0,10.0,62,0.00,,CLR,0.00,VWS V14.01,2013-05-21 23:32:00,
2013-05-21 19:37:00,86.0,71.5,29.80,SW,223,2.0,10.0,62,0.00,,CLR,0.00,VWS V14.01,2013-05-21 23:37:00,
2013-05-21 19:42:00,85.6,71.6,29.79,SSW,206,2.0,10.0,63,0.00,,CLR,0.00,VWS V14.01,2013-05-21 23:42:00,
2013-05-21 19:47:00,85.4,71.8,29.79,SW,225,3.0,10.0,64,0.00,,CLR,0.00,VWS V14.01,2013-05-21 23:47:00,
2013-05-21 19:52:00,84.9,71.4,29.79,SSW,209,5.0,11.0,64,0.00,,CLR,0.00,VWS V14.01,2013-05-21 23:52:00,
2013-05-21 19:57:00,84.5,71.4,29.79,SW,218,3.0,11.0,65,0.00,,CLR,0.00,VWS V14.01,2013-05-21 23:57:00,
2013-05-21 20:02:00,84.2,71.2,29.79,SSW,207,3.0,8.0,65,0.00,,CLR,0.00,VWS V14.01,2013-05-22 00:02:00,
2013-05-21 20:07:00,83.8,71.2,29.80,SW,225,1.0,8.0,66,0.00,,CLR,0.00,VWS V14.01,2013-05-22 00:07:00,
2013-05-21 20:12:00,83.5,70.9,29.79,SSW,203,6.0,9.0,66,0.00,,CLR,0.00,VWS V14.01,2013-05-22 00:12:00,
2013-05-21 20:17:00,83.2,71.1,29.80,SSW,197,1.0,9.0,67,0.00,,CLR,0.00,VWS V14.01,2013-05-22 00:17:00,
2013-05-21 20:22:00,82.9,70.8,29.80,SSW,207,1.0,9.0,67,0.00,,CLR,0.00,VWS V14.01,2013-05-22 00:22:00,
2013-05-21 20:27:00,82.6,70.5,29.80,SSW,203,2.0,10.0,67,0.00,,CLR,0.00,VWS V14.01,2013-05-22 00:27:00,
2013-05-21 20:32:00,82.3,70.3,29.80,SSW,203,3.0,6.0,67,0.00,,CLR,0.00,VWS V14.01,2013-05-22 00:32:00,
2013-05-21 20:37:00,82.0,70.4,29.80,SW,228,3.0,6.0,68,0.00,,CLR,0.00,VWS V14.01,2013-05-22 00:37:00,
2013-05-21 20:42:00,81.7,70.1,29.80,SW,217,1.0,6.0,68,0.00,,CLR,0.00,VWS V14.01,2013-05-22 00:42:00,
2013-05-21 20:47:00,81.5,70.4,29.80,SSW,209,3.0,6.0,69,0.00,,CLR,0.00,VWS V14.01,2013-05-22 00:47:00,
2013-05-21 20:52:00,81.2,70.5,29.80,SSW,209,6.0,8.0,70,0.00,,CLR,0.00,VWS V14.01,2013-05-22 00:52:00,
2013-05-21 20:57:00,81.0,70.3,29.80,SSW,210,2.0,8.0,70,0.00,,CLR,0.00,VWS V14.01,2013-05-22 00:57:00,
2013-05-21 21:02:00,80.8,70.5,29.80,SSW,210,1.0,4.0,71,0.00,,CLR,0.00,VWS V14.01,2013-05-22 01:02:00,
2013-05-21 21:07:00,80.6,70.3,29.81,SW,229,7.0,9.0,71,0.00,,CLR,0.00,VWS V14.01,2013-05-22 01:07:00,
2013-05-21 21:12:00,80.4,70.6,29.81,SSW,195,3.0,9.0,72,0.00,,CLR,0.00,VWS V14.01,2013-05-22 01:12:00,
2013-05-21 21:17:00,80.2,70.4,29.81,SSW,194,4.0,9.0,72,0.00,,CLR,0.00,VWS V14.01,2013-05-22 01:17:00,
2013-05-21 21:22:00,80.1,70.7,29.81,SSW,195,2.0,9.0,73,0.00,,CLR,0.00,VWS V14.01,2013-05-22 01:22:00,
2013-05-21 21:27:00,79.8,70.8,29.81,South,175,3.0,9.0,74,0.00,,CLR,0.00,VWS V14.01,2013-05-22 01:27:00,
2013-05-21 21:32:00,79.7,71.1,29.81,SSW,208,2.0,6.0,75,0.00,,CLR,0.00,VWS V14.01,2013-05-22 01:32:00,
2013-05-21 21:37:00,79.6,71.4,29.81,SW,219,5.0,8.0,76,0.00,,CLR,0.00,VWS V14.01,2013-05-22 01:37:00,
2013-05-21 21:42:00,79.5,71.3,29.81,SSE,157,1.0,8.0,76,0.00,,CLR,0.00,VWS V14.01,2013-05-22 01:42:00,
2013-05-21 21:47:00,79.3,71.5,29.81,SSW,213,2.0,8.0,77,0.00,,CLR,0.00,VWS V14.01,2013-05-22 01:47:00,
2013-05-21 21:52:00,79.2,71.4,29.81,SSW,211,4.0,9.0,77,0.00,,CLR,0.00,VWS V14.01,2013-05-22 01:52:00,
2013-05-21 21:57:00,79.2,71.8,29.82,SSW,204,6.0,9.0,78,0.00,,CLR,0.00,VWS V14.01,2013-05-22 01:57:00,
2013-05-21 22:02:00,79.1,71.7,29.82,South,183,3.0,5.0,78,0.00,,CLR,0.00,VWS V14.01,2013-05-22 02:02:00,
2013-05-21 22:07:00,79.0,71.6,29.81,SSW,213,2.0,9.0,78,0.00,,CLR,0.00,VWS V14.01,2013-05-22 02:07:00,
2013-05-21 22:12:00,78.9,71.8,29.81,SW,217,3.0,9.0,79,0.00,,CLR,0.00,VWS V14.01,2013-05-22 02:12:00,
2013-05-21 22:17:00,78.9,71.8,29.81,SSW,192,5.0,11.0,79,0.00,,CLR,0.00,VWS V14.01,2013-05-22 02:17:00,
2013-05-21 22:22:00,78.8,71.7,29.82,SW,214,5.0,11.0,79,0.00,,CLR,0.00,VWS V14.01,2013-05-22 02:22:00,
2013-05-21 22:27:00,78.7,71.6,29.81,SW,218,4.0,12.0,79,0.00,,CLR,0.00,VWS V14.01,2013-05-22 02:27:00,
2013-05-21 22:32:00,78.6,71.6,29.82,South,187,7.0,10.0,79,0.00,,CLR,0.00,VWS V14.01,2013-05-22 02:32:00,
2013-05-21 22:37:00,78.5,71.4,29.81,South,189,9.0,12.0,79,0.00,,CLR,0.00,VWS V14.01,2013-05-22 02:37:00,
2013-05-21 22:42:00,78.5,71.4,29.81,South,178,11.0,12.0,79,0.00,,CLR,0.00,VWS V14.01,2013-05-22 02:42:00,
2013-05-21 22:47:00,78.4,71.3,29.81,SSW,211,12.0,16.0,79,0.00,,CLR,0.00,VWS V14.01,2013-05-22 02:47:00,
2013-05-21 22:52:00,78.4,71.3,29.81,SSW,210,7.0,16.0,79,0.00,,CLR,0.00,VWS V14.01,2013-05-22 02:52:00,
2013-05-21 22:57:00,78.3,71.3,29.81,SSW,201,7.0,16.0,79,0.00,,CLR,0.00,VWS V14.01,2013-05-22 02:57:00,
2013-05-21 23:02:00,78.3,71.3,29.80,SSW,205,3.0,13.0,79,0.00,,CLR,0.00,VWS V14.01,2013-05-22 03:02:00,
2013-05-21 23:07:00,78.2,71.2,29.81,SSW,194,14.0,17.0,79,0.00,,CLR,0.00,VWS V14.01,2013-05-22 03:07:00,
2013-05-21 23:12:00,78.1,71.1,29.81,SSW,204,8.0,17.0,79,0.00,,CLR,0.00,VWS V14.01,2013-05-22 03:12:00,
2013-05-21 23:17:00,78.0,71.0,29.81,South,185,3.0,17.0,79,0.00,,CLR,0.00,VWS V14.01,2013-05-22 03:17:00,
2013-05-21 23:22:00,77.9,70.9,29.81,SSW,202,0.0,17.0,79,0.00,,CLR,0.00,VWS V14.01,2013-05-22 03:22:00,
2013-05-21 23:27:00,77.8,71.1,29.81,South,182,5.0,17.0,80,0.00,,CLR,0.00,VWS V14.01,2013-05-22 03:27:00,
2013-05-21 23:32:00,77.7,71.0,29.81,SSW,199,4.0,11.0,80,0.00,,CLR,0.00,VWS V14.01,2013-05-22 03:32:00,
2013-05-21 23:37:00,77.6,71.3,29.81,SW,234,0.0,11.0,81,0.00,,CLR,0.00,VWS V14.01,2013-05-22 03:37:00,
2013-05-21 23:42:00,77.5,71.2,29.81,SW,220,0.0,11.0,81,0.00,,CLR,0.00,VWS V14.01,2013-05-22 03:42:00,
2013-05-21 23:47:00,77.4,71.1,29.81,South,191,10.0,11.0,81,0.00,,CLR,0.00,VWS V14.01,2013-05-22 03:47:00,
2013-05-21 23:52:00,77.3,71.0,29.81,WSW,257,5.0,11.0,81,0.00,,CLR,0.00,VWS V14.01,2013-05-22 03:52:00,
2013-05-21 23:57:00,77.2,70.9,29.81,WSW,239,5.0,11.0,81,0.00,,CLR,0.00,VWS V14.01,2013-05-22 03:57:00,